Regional Weather Roundup
Issued by NWS Huntsville, AL

Home | Current Version | Previous Version | Text Only | Print | Product List | Glossary On
Versions: 1 2 3 4 5 6 7 8 9 10 11 12 13 14 15 16 17 18 19 20 21 22 23 24 25 26 27 28 29 30 31 32 33 34 35 36 37 38 39 40 41 42 43 44 45 46 47 48 49 50
000
ASUS44 KHUN 021610
RWRHUN

WEATHER ROUNDUP FOR THE TENNESSEE VALLEY
NATIONAL WEATHER SERVICE HUNTSVILLE AL
1100 AM CDT TUE SEP 02 2014

ALZ001>004-021700-
NORTHWEST ALABAMA

CITY           SKY/WX    TMP DP  RH WIND       PRES   REMARKS
SHOALS AIRPORT PTSUNNY   88  73  62 W10       30.09S HX  96
SHOALS TVA RES   N/A     82 N/A N/A MISG        N/A
$$

ALZ005>007-016-021700-
NORTH CENTRAL ALABAMA

CITY           SKY/WX    TMP DP  RH WIND       PRES   REMARKS
DECATUR AP     CLOUDY    86  73  65 W8        30.10S HX  93
HUNTSVILLE AP  MOSUNNY   87  71  58 W9        30.10S HX  93
MERIDIANVILLE  MOSUNNY   86  66  51 SW7       30.10S
REDSTONE ARSN  MOSUNNY   84  70  61 W7        30.11F
VINEMONT AP    FAIR      84  71  65 SW10      30.14S
$$

ALZ008>010-021700-
NORTHEAST ALABAMA

CITY           SKY/WX    TMP DP  RH WIND       PRES   REMARKS
ALBERTVILLE    SUNNY     84  75  74 SW9       30.12S HX  92
FORT PAYNE     MOSUNNY   84  66  54 W6        30.11F
SCOTTSBORO AP  SUNNY     86  72  62 W8        30.10F HX  92
SCOTTSBORO HCN   N/A     84 N/A N/A MISG        N/A
VALLEY HEAD      N/A     82 N/A N/A MISG        N/A
$$

TNZ076-096-097-021700-
SOUTHEASTERN MIDDLE TENNESSEE

CITY           SKY/WX    TMP DP  RH WIND       PRES   REMARKS
FAYETTEVILLE   MOSUNNY   82  72  69 SW8       30.11S
TULLAHOMA      MOSUNNY   84  72  65 SW10      30.11F
WINCHESTER     SUNNY     84  72  65 W8        30.11F
$$

...SURROUNDING SITES...

CITY           SKY/WX    TMP DP  RH WIND       PRES   REMARKS
ATLANTA        MOSUNNY   88  73  61 VRB6      30.13S HX  95
ANNISTON       SUNNY     86  71  60 VRB6      30.12F HX  91
BIRMINGHAM     PTSUNNY   86  71  60 SW6       30.13F HX  91
CHATTANOOGA    MOSUNNY   86  70  58 SW5       30.10F HX  90
CORINTH        PTSUNNY   84  75  74 SW9       30.06F HX  92
DALTON         SUNNY     84  73  70 CALM      30.11F HX  91
GADSDEN        MOSUNNY   88  68  51 W8        30.10F HX  91
GOLDEN TRNGL   PTSUNNY   88  73  62 SW6       30.10R HX  96
HALEYVILLE     FAIR      84  73  69 VRB6      30.14S HX  90
JACKSON TN     CLOUDY    83  74  74 SW13      30.05S
LEWISBURG      FAIR      86  72  62 SW7       30.07S HX  92
MEMPHIS        CLOUDY    84  75  74 W7        30.06F HX  92
MURFREESBORO   FAIR      88  72  58 SW10      30.05F HX  94
NASHVILLE      PTSUNNY   87  72  60 SW8G20    30.05S HX  93
ROME           SUNNY     88  72  58 SW5       30.10F HX  94
SAVANNAH       PTSUNNY   84  75  74 SW8       30.06F HX  92
TUPELO         MOSUNNY   87  74  64 VRB7      30.07F HX  95
TUSCALOOSA     MOSUNNY   87  73  62 SW6       30.10F HX  94
$$

...GULF COAST WEATHER...

CITY           SKY/WX    TMP DP  RH WIND       PRES   REMARKS
GULFPORT       MOSUNNY   88  75  65 S7        30.08R HX  97
PASCAGOULA     MOSUNNY   88  74  63 SE3       30.08S HX  96
MOBILE         MOSUNNY   89  74  60 VRB3      30.10S HX  98
GULF SHORES    SUNNY     89  75  64 S8        30.09R HX  99
PENSACOLA      MOSUNNY   88  75  65 S9        30.09R HX  97
DESTIN         SUNNY     88  77  69 VRB7      30.09F HX 100
PANAMA CITY    MOSUNNY   88  77  70 VRB1      30.11S HX 100
APPALACHICOLA  MOSUNNY   90  74  59 NE3       30.10S HX  99
$$




USA.gov is the U.S. government's official web portal to all federal, state and local government web resources and services.